633  
ASUS41 KAKQ 092111  
RWRAKQ  
 
REGIONAL WEATHER ROUNDUP  
NATIONAL WEATHER SERVICE WAKEFIELD VA  
500 PM EDT FRI JUN 09 2023  
 
NOTE: "FAIR" INDICATES FEW OR NO CLOUDS BELOW 12,000 FEET WITH NO  
SIGNIFICANT WEATHER AND/OR S TO VISIBILITY
. * = DENOTES  
STATION MAY NOT REPORT PRECIPITATION (E.G., RAIN,SNOW,ETC.),
 
THUNDER OR FOG.  
 
VAZ042-051-052>054-056-092200-  
NORTHERN VIRGINIA  
 
CITY SKY/WX TMP DP RH WIND PRES REMARKS
 
WASH NATIONAL MOSUNNY 75 47 36 NW12G23 29.78S  
DULLES CLOUDY 71 46 40 NW9 29.79S  
FORT BELVOIR MOSUNNY 75 45 33 NW14 29.75F  
QUANTICO MOSUNNY 76 49 38 VRB5 29.78F  
FREDERICKSBRG* MOSUNNY 75 45 34 CALM 29.76F  
STAFFORD* MOSUNNY 76 40 27 W7 29.79S  
WARRENTON MOSUNNY 76 42 29 W7 29.79S  
CULPEPER* MOSUNNY 76 46 35 W5 29.79S  
MANASSAS* PTSUNNY 72 46 39 NW13 29.79F  
LEESBURG* PTSUNNY 70 54 56 W5 29.80F  
WINCHESTER PTSUNNY 72 45 37 NW12G18 29.78S  
FRONT ROYAL* CLOUDY 72 43 35 W13 29.78S  
LURAY* FAIR 73 41 31 W10G17 29.79F  

 
 
VAZ048-049-060>072-079>083-092200-  
CENTRAL AND SOUTH CENTRAL VIRGINIA  
 
CITY SKY/WX TMP DP RH WIND PRES REMARKS
 
RICHMOND CLOUDY 74 47 38 N12 29.79S  
CHESTERFIELD* FAIR 75 46 35 NW10 N/A  
PETERSBURG* PTSUNNY 75 46 35 NW5 29.81R  
HANOVER PTSUNNY 74 50 42 CALM 29.81S  
TAPPAHANNOCK* PTSUNNY 75 50 41 CALM 29.79F  
QUINTON* FAIR 73 49 43 N3 29.79S  
CHARLOTTSVILLE MOSUNNY 78 44 29 SW7 29.79F  
GORDONSVILLE* PTSUNNY 73 51 46 NE6 29.79R  
ORANGE* MOSUNNY 72 50 46 CALM 29.81F  
LOUISA* MOSUNNY 73 49 43 E7 29.80F  
BUMPASS* NOT AVBL  
FARMVILLE* NOT AVBL  
CREWE* CLOUDY 72 44 37 W3 29.82R  
FORT PICKETT* CLOUDY 73 49 43 NW5 29.82R  
CHASE CITY* FAIR 75 44 32 W3 29.82S  
CLARKSVILLE* PTSUNNY 79 46 31 N5 29.81S  
SOUTH HILL* MOSUNNY 78 49 35 NW5 29.86S  
LAWRENCEVILLE* FAIR 79 50 36 N5 29.81S  
EMPORIA* PTSUNNY 74 51 43 NW6 29.81S  

 
 
VAZ088>098-092200-  
SOUTHEAST VIRGINIA  
 
CITY SKY/WX TMP DP RH WIND PRES REMARKS
 
NORFOLK MOSUNNY 77 52 41 VRB5 29.78S  
VIRGINIA BEACH MOSUNNY 78 51 38 NW9 29.78S  
NORFOLK NAVAL PTSUNNY 76 49 38 W8 29.80S  
WEST POINT* PTSUNNY 75 49 40 NW6 29.80R  
SALUDA* PTSUNNY 69 53 55 CALM 29.79S  
NEWPORT NEWS LGT RAIN 72 50 45 NW8 29.79S  
LANGLEY AFB PTSUNNY 73 54 51 E6 29.78S  
FORT EUSTIS LGT RAIN 71 53 52 N7 29.77  
WILLIAMSBURG* NOT AVBL  
HR EXEC AP* FAIR 76 54 46 MISG 29.80S  
FRANKLIN* SUNNY 77 45 31 CALM 29.80S  
US460-WAKEFLD MOSUNNY 77 49 37 W6 29.79S  

 
 
VAZ020-022-025-037-045-092200-  
WEST CENTRAL AND SOUTHWEST VIRGINIA  
 
CITY SKY/WX TMP DP RH WIND PRES REMARKS
 
STAUNTON* MOSUNNY 74 42 31 W8 29.83F  
WAYNESBORO* PTSUNNY 69 46 42 NW3 29.83S  
HOT SPRINGS VA CLOUDY 63 38 39 W10G18 29.92S  
LYNCHBURG MOSUNNY 75 43 31 VRB5 29.83S  
DANVILLE MOSUNNY 78 45 30 NW6 29.82F  
SOUTH BOSTON* CLOUDY 75 43 32 NW5 29.82S  
MARTINSVILLE MOSUNNY 77 38 24 W3 29.85F  
ROANOKE PTSUNNY 75 45 34 NW9 29.86S  
BLACKSBURG CLOUDY 72 43 35 NW12G17 29.91S  
DUBLIN* CLOUDY 70 41 35 W5 29.88F  
MARION* PTSUNNY 69 40 35 NW7G16 29.94S  
HILLSVILLE* CLOUDY 67 40 37 NW8 29.90S  
RICHLANDS* FAIR 69 44 40 NW12G20 29.93F  
WISE* MOSUNNY 68 41 37 NW8 29.95F  
ABINGDON* NOT AVBL  

 
 
MDZ021>025-VAZ099-100-092200-  
SOUTHERN MARYLAND AND THE DELMARVA PENINSULA  
 
CITY SKY/WX TMP DP RH WIND PRES REMARKS
 
PATUXENT RIVER MOSUNNY 76 45 33 NW15 29.77S  
BAY BRIDGE APT MOSUNNY 73 48 41 W9 29.75F  
LEONARDTOWN MOSUNNY 73 46 38 W7 29.79F  
DOVER MOSUNNY 74 42 32 W13 29.72S  
GEORGETOWN MOSUNNY 76 49 38 VRB6 29.74F  
EASTON SUNNY 73 46 38 W12G17 29.75F  
CAMBRIDGE SUNNY 73 50 43 W8 29.76S  
SALISBURY MOSUNNY 73 52 47 SW7 29.75F  
TANGIER NOT AVBL  
OCEAN CITY MOSUNNY 75 49 39 NW9 29.75F  
WALLOPS ISLAND MOSUNNY 75 52 44 W9 29.77S  
ACCOMACK* PTSUNNY 68 48 48 CALM 29.79R  

 
 
NCZ012>017-030>032-092200-  
NORTH CENTRAL AND EASTERN NORTH CAROLINA  
 
CITY SKY/WX TMP DP RH WIND PRES REMARKS
 
ROANOKE RAPIDS FAIR 75 55 50 NW3 29.80F  
RALEIGH MOSUNNY 80 46 30 N10 29.82S  
ELIZABETH CITY MOSUNNY 75 56 51 NE14 29.80R  
AHOSKIE* SUNNY 76 50 40 NW5 29.80S  
EDENTON* MOSUNNY 80 59 48 SW7 29.79S  
CURRITUCK* MOSUNNY 72 23 15 E6 29.80S  
KILL DEVIL HLS SUNNY 71 55 58 E8 29.80S  
MANTEO SUNNY 72 56 57 E8 29.81S  
CAPE HATTERAS MOSUNNY 74 59 59 S8 29.81S  
TARBORO* FAIR 79 47 32 NW8 29.79S HAZE  
GOLDSBORO MOSUNNY 82 44 25 N8 29.77S  
WASHINGTON MOSUNNY 78 49 35 SW7 29.79S  
GREENVILLE SUNNY 81 45 28 NW5 29.79S  
NEW BERN MOSUNNY 79 56 45 SW8 29.80S  
WILMINGTON MOSUNNY 78 56 46 SE8 29.79S  

 
 
VAZ048-092200-  
ELSEWHERE  
 
CITY SKY/WX TMP DP RH WIND PRES REMARKS
 
HARRISBURG PA PTSUNNY 73 46 38 W13 29.73F  
BALTIMORE PTSUNNY 69 51 52 W10 29.76R  
ANNAPOLIS MOSUNNY 71 50 47 NW12 29.76R  
ANDREWS AFB MOSUNNY 72 46 40 NW14G24 29.75S  
PHILADELPHIA PTSUNNY 73 41 31 NW10 29.72S  
HENDERSON NC SUNNY 75 42 30 N6 29.81F  
GREENSBORO MOSUNNY 75 44 33 W6 29.83F  
ROCKY MOUNT PTSUNNY 80 47 31 N6 29.81R  

 
 
VAZ100-092200-  
MARINE  
 
STATION/POSITION TIME TEMP WIND PRES WAVE SWELL
 
AIR SEA DIR/SP/G HT/PER HT/PER  
(UTC) (F) (DEG/KT/KT) (MB) (FT/S) (FT/S)  
CAPE MAY NJ 2030 70 280/ 4/ 6 1007.1F  
LEWES DE 2030 68 69 40/ 3/ 3 1007.5F  
15NM E FENWICK I 2050 65 64 170/ 8/ 10 1007.7F 2/14 2/14  
OCEAN-CITY-INLET 2030 69 67 200/ 5/ 9 1007.8F  
44089 WALLOPS IS 2056 65 N/A 2/14 2/14  
WACHAPREAGUE VA 2024 74 74 280/ 3/ 5 1007.6  
THOMAS POINT MD 2100 71 270/ 18/ 21 1008.5F  
GOOSES REEF MD 2048 70 72 270/ 14/ 17 1009.6R 1/ 2  
COVE POINT MD 2030 71 250/ 11/ 19 1008.3F  
SOLOMONS ISLAND 2024 73 71 270/ 12/ 15 1006.8  
BISHOPS HEAD MD 2030 69 75 270/ 4/ 5 1008.3F  
PINEY POINT MD 2024 310/ 11/ 16 N/A  
POTOMAC MD 2042 69 70 290/ 12/ 16 N/A 1/ 3  
CAMBRIDGE MD 2030 72 72 310/ 12/ 16 1007.9F  
RAPPAHANNOCK LGT 2024 20/ 3/ 3 1009.2  
STINGRAY PT 2042 67 72 80/ 2/ 4 N/A 1  
YORK RVR RNG VA 2024 70 140/ 8/ 9 1008.5  
YORKTOWN VA 2024 74 72 260/ 6/ 8 1006.6  
JAMESTOWN VA 2042 69 70/ 2/ 4 N/A 0  
DOMINION TERM VA 2024 73 320/ 5/ 6 1008.8  
KIPTOPEKE VA 2024 230/ 4/ 5 N/A  
CHES BAY BRIDGE 2024 72 60/ 1/ 3 1007.0  
CAPE HENRY VA 2024 72 20/ 3/ 4 1008.9  
WILLOUBY STN VA 2024 71 90/ 6/ 6 1008.3  
S CRANEY ISL VA 2024 75 300/ 5/ 8 1008.4  
CAPE HENRY BUOY 2056 68 N/A 1/14  
1ST LANDING BUOY 2042 70 71 70/ 6/ 8 1025.6F 1/14  
64NM E OF VA BCH 2040 65 63 280/ 4/ 6 1009.7R  
DUCK PIER NC 2024 69 70 50/ 10/ 11 1008.9  
44100 DUCK FRF 2056 69 N/A 2/13  
44056 DUCK FRF 2026 70 N/A 1/14  
OREGON INLET NC 2024 70 72 100/ 8/ 9 1009.2F  
HATTERAS NC 2024 74 74 170/ 5/ 7 1009.8  
DIAMOND SHLS NC 2050 72 72 130/ 2/ 4 1009.5S 2/ 7 2/ 7  
CAPE LOOKOUT NC 2000 71 110/ 10/ 11 1009.7F  

 
 
 
CLICK HERE TO GO TO PREVIOUS BULLETINS.

The Nexlab VA Page
The Nexlab NC Page
The Nexlab MD Page Main Text Page